| time (UTC) | temp C | wind direction | speed KPH | gust KPH | rain 1hr cm | rain 24hr cm | rain mn cm | humidity % | barometer mb |
| 20260509134546 | 20 | 156 | 0.0 | 4.8 | 0.00 | 0.00 | 0.00 | 27 | 1019.2 |
| 20260509134046 | 20 | 126 | 4.8 | 6.4 | 0.00 | 0.00 | 0.00 | 26 | 1019.0 |
| 20260509133547 | 19 | 319 | 0.0 | 4.8 | 0.00 | 0.00 | 0.00 | 24 | 1019.0 |
| 20260509133008 | 18 | 239 | 4.8 | 8.0 | 0.00 | 0.00 | 0.00 | 24 | 1018.9 |
| 20260509132547 | 18 | 276 | 6.4 | 9.7 | 0.00 | 0.00 | 0.00 | 24 | 1018.7 |
| 20260509132047 | 18 | 274 | 11.3 | 11.3 | 0.00 | 0.00 | 0.00 | 23 | 1018.7 |
| 20260509131547 | 18 | 262 | 6.4 | 11.3 | 0.00 | 0.00 | 0.00 | 23 | 1018.7 |
| 20260509131047 | 18 | 263 | 9.7 | 14.5 | 0.00 | 0.00 | 0.00 | 23 | 1018.5 |
| 20260509130547 | 17 | 258 | 12.9 | 14.5 | 0.00 | 0.00 | 0.00 | 24 | 1018.8 |
| 20260509130008 | 17 | 271 | 9.7 | 12.9 | 0.00 | 0.00 | 0.00 | 24 | 1018.4 |
| 20260509125546 | 17 | 250 | 8.0 | 12.9 | 0.00 | 0.00 | 0.00 | 24 | 1018.5 |
| 20260509125046 | 17 | 260 | 12.9 | 14.5 | 0.00 | 0.00 | 0.00 | 24 | 1018.5 |
| 20260509124508 | 17 | 262 | 9.7 | 11.3 | 0.00 | 0.00 | 0.00 | 24 | 1018.4 |
| 20260509124008 | 17 | 261 | 9.7 | 12.9 | 0.00 | 0.00 | 0.00 | 24 | 1018.4 |
| 20260509123547 | 17 | 268 | 11.3 | 14.5 | 0.00 | 0.00 | 0.00 | 24 | 1018.2 |
| 20260509123008 | 17 | 263 | 12.9 | 12.9 | 0.00 | 0.00 | 0.00 | 25 | 1018.3 |
| 20260509122546 | 17 | 262 | 9.7 | 14.5 | 0.00 | 0.00 | 0.00 | 25 | 1018.2 |
| 20260509122047 | 17 | 248 | 12.9 | 12.9 | 0.00 | 0.00 | 0.00 | 25 | 1018.3 |
| 20260509121547 | 17 | 256 | 8.0 | 14.5 | 0.00 | 0.00 | 0.00 | 25 | 1018.3 |
| 20260509121007 | 17 | 268 | 11.3 | 16.1 | 0.00 | 0.00 | 0.00 | 25 | 1018.0 |
| 20260509120547 | 17 | 260 | 12.9 | 12.9 | 0.00 | 0.00 | 0.00 | 25 | 1018.1 |
| 20260509120047 | 17 | 260 | 12.9 | 14.5 | 0.00 | 0.00 | 0.00 | 25 | 1018.0 |
| 20260509115508 | 17 | 267 | 9.7 | 16.1 | 0.00 | 0.00 | 0.00 | 25 | 1018.1 |
| 20260509115046 | 17 | 272 | 12.9 | 16.1 | 0.00 | 0.00 | 0.00 | 25 | 1018.2 |
| 20260509114546 | 17 | 255 | 9.7 | 16.1 | 0.00 | 0.00 | 0.00 | 25 | 1018.2 |
| 20260509114047 | 17 | 266 | 11.3 | 17.7 | 0.00 | 0.00 | 0.00 | 25 | 1018.1 |
| 20260509113546 | 17 | 261 | 12.9 | 16.1 | 0.00 | 0.00 | 0.00 | 25 | 1018.0 |
| 20260509113046 | 17 | 257 | 11.3 | 16.1 | 0.00 | 0.00 | 0.00 | 25 | 1018.1 |
| 20260509112547 | 17 | 263 | 9.7 | 17.7 | 0.00 | 0.00 | 0.00 | 25 | 1018.0 |
| 20260509112007 | 17 | 257 | 9.7 | 17.7 | 0.00 | 0.00 | 0.00 | 25 | 1018.0 |
| 20260509111547 | 17 | 265 | 9.7 | 16.1 | 0.00 | 0.00 | 0.00 | 25 | 1018.0 |
| 20260509111047 | 17 | 271 | 9.7 | 19.3 | 0.00 | 0.00 | 0.00 | 25 | 1018.0 |
| 20260509110507 | 17 | 256 | 12.9 | 14.5 | 0.00 | 0.00 | 0.00 | 25 | 1018.2 |
| 20260509110007 | 17 | 251 | 12.9 | 16.1 | 0.00 | 0.00 | 0.00 | 25 | 1018.2 |
| 20260509105547 | 17 | 264 | 16.1 | 16.1 | 0.00 | 0.00 | 0.00 | 25 | 1018.2 |
| 20260509105007 | 17 | 250 | 11.3 | 14.5 | 0.00 | 0.00 | 0.00 | 25 | 1018.0 |
| 20260509104547 | 17 | 260 | 12.9 | 14.5 | 0.00 | 0.00 | 0.00 | 25 | 1018.2 |
| 20260509104047 | 17 | 252 | 8.0 | 14.5 | 0.00 | 0.00 | 0.00 | 25 | 1018.2 |
| 20260509103547 | 17 | 264 | 9.7 | 16.1 | 0.00 | 0.00 | 0.00 | 25 | 1018.2 |
| 20260509103008 | 17 | 265 | 12.9 | 14.5 | 0.00 | 0.00 | 0.00 | 25 | 1018.1 |
| 20260509102546 | 17 | 257 | 14.5 | 19.3 | 0.00 | 0.00 | 0.00 | 24 | 1018.2 |
| 20260509102046 | 17 | 255 | 11.3 | 14.5 | 0.00 | 0.00 | 0.00 | 24 | 1018.2 |
| 20260509101547 | 17 | 255 | 11.3 | 16.1 | 0.00 | 0.00 | 0.00 | 24 | 1018.3 |
| 20260509101008 | 17 | 272 | 11.3 | 14.5 | 0.00 | 0.00 | 0.00 | 24 | 1018.6 |
| 20260509100546 | 17 | 272 | 12.9 | 14.5 | 0.00 | 0.00 | 0.00 | 24 | 1018.3 |
| 20260509100047 | 17 | 255 | 11.3 | 16.1 | 0.00 | 0.00 | 0.00 | 24 | 1018.4 |
| 20260509094008 | 17 | 264 | 12.9 | 16.1 | 0.00 | 0.00 | 0.00 | 24 | 1018.4 |
| 20260509093546 | 17 | 267 | 14.5 | 16.1 | 0.00 | 0.00 | 0.00 | 23 | 1018.5 |
| 20260509093047 | 17 | 259 | 11.3 | 14.5 | 0.00 | 0.00 | 0.00 | 24 | 1018.5 |
| 20260509092508 | 17 | 262 | 9.7 | 14.5 | 0.00 | 0.00 | 0.00 | 24 | 1018.5 |
| 20260509092008 | 17 | 265 | 11.3 | 16.1 | 0.00 | 0.00 | 0.00 | 24 | 1018.4 |
| 20260509091547 | 17 | 232 | 8.0 | 14.5 | 0.00 | 0.00 | 0.00 | 24 | 1018.5 |
| 20260509085546 | 18 | 257 | 9.7 | 19.3 | 0.00 | 0.00 | 0.00 | 23 | 1018.4 |
| 20260509085008 | 18 | 274 | 12.9 | 16.1 | 0.00 | 0.00 | 0.00 | 23 | 1018.5 |
| 20260509084547 | 18 | 263 | 11.3 | 17.7 | 0.00 | 0.00 | 0.00 | 23 | 1018.5 |
| 20260509084047 | 18 | 248 | 14.5 | 16.1 | 0.00 | 0.00 | 0.00 | 23 | 1018.4 |
| 20260509083547 | 18 | 272 | 12.9 | 14.5 | 0.00 | 0.00 | 0.00 | 23 | 1018.5 |
| 20260509083008 | 18 | 263 | 11.3 | 14.5 | 0.00 | 0.00 | 0.00 | 23 | 1018.7 |
| 20260509082546 | 18 | 267 | 11.3 | 16.1 | 0.00 | 0.00 | 0.00 | 23 | 1018.5 |
| 20260509082046 | 18 | 241 | 9.7 | 16.1 | 0.00 | 0.00 | 0.00 | 23 | 1018.5 |
| 20260509081546 | 18 | 241 | 12.9 | 20.9 | 0.00 | 0.00 | 0.00 | 23 | 1018.7 |
| 20260509081046 | 18 | 275 | 11.3 | 14.5 | 0.00 | 0.00 | 0.00 | 23 | 1018.6 |
| 20260509080546 | 18 | 259 | 8.0 | 17.7 | 0.00 | 0.00 | 0.00 | 22 | 1018.7 |
| 20260509074507 | 18 | 262 | 14.5 | 16.1 | 0.00 | 0.00 | 0.00 | 22 | 1018.9 |
| 20260509074008 | 18 | 268 | 11.3 | 17.7 | 0.00 | 0.00 | 0.00 | 22 | 1018.6 |
| 20260509073546 | 18 | 263 | 11.3 | 19.3 | 0.00 | 0.00 | 0.00 | 22 | 1018.7 |
| 20260509073007 | 18 | 264 | 9.7 | 16.1 | 0.00 | 0.00 | 0.00 | 22 | 1018.7 |
| 20260509072547 | 18 | 256 | 9.7 | 19.3 | 0.00 | 0.00 | 0.00 | 22 | 1018.9 |
| 20260509072046 | 18 | 262 | 9.7 | 14.5 | 0.00 | 0.00 | 0.00 | 22 | 1018.8 |
| 20260509071546 | 18 | 258 | 11.3 | 14.5 | 0.00 | 0.00 | 0.00 | 22 | 1018.9 |
| 20260509071047 | 18 | 264 | 8.0 | 14.5 | 0.00 | 0.00 | 0.00 | 22 | 1018.8 |
| 20260509070509 | 19 | 263 | 16.1 | 16.1 | 0.00 | 0.00 | 0.00 | 22 | 1018.8 |
| 20260509070009 | 18 | 261 | 11.3 | 14.5 | 0.00 | 0.00 | 0.00 | 22 | 1019.0 |
| 20260509065507 | 18 | 260 | 9.7 | 11.3 | 0.00 | 0.00 | 0.00 | 22 | 1018.8 |
| 20260509065007 | 18 | 267 | 8.0 | 11.3 | 0.00 | 0.00 | 0.00 | 22 | 1018.9 |
| 20260509064547 | 18 | 207 | 8.0 | 11.3 | 0.00 | 0.00 | 0.00 | 21 | 1018.9 |
| 20260509064047 | 19 | 260 | 8.0 | 11.3 | 0.00 | 0.00 | 0.00 | 21 | 1018.9 |
| 20260509063547 | 19 | 251 | 11.3 | 16.1 | 0.00 | 0.00 | 0.00 | 21 | 1018.8 |
| 20260509062008 | 19 | 275 | 12.9 | 17.7 | 0.00 | 0.00 | 0.00 | 21 | 1019.0 |
| 20260509061547 | 20 | 261 | 9.7 | 14.5 | 0.00 | 0.00 | 0.00 | 21 | 1019.0 |
| 20260509061047 | 20 | 268 | 8.0 | 16.1 | 0.00 | 0.00 | 0.00 | 21 | 1018.9 |
| 20260509060508 | 20 | 271 | 12.9 | 12.9 | 0.00 | 0.00 | 0.00 | 21 | 1018.8 |
| 20260509060047 | 20 | 256 | 11.3 | 17.7 | 0.00 | 0.00 | 0.00 | 21 | 1019.2 |
| 20260509055547 | 19 | 266 | 8.0 | 11.3 | 0.00 | 0.00 | 0.00 | 21 | 1018.9 |
| 20260509055008 | 19 | 238 | 8.0 | 12.9 | 0.00 | 0.00 | 0.00 | 21 | 1018.8 |
| 20260509054547 | 20 | 231 | 6.4 | 12.9 | 0.00 | 0.00 | 0.00 | 21 | 1018.8 |
| 20260509054047 | 20 | 248 | 11.3 | 14.5 | 0.00 | 0.00 | 0.00 | 21 | 1018.9 |
| 20260509053547 | 20 | 260 | 6.4 | 16.1 | 0.00 | 0.00 | 0.00 | 21 | 1019.2 |
| 20260509053008 | 20 | 257 | 11.3 | 16.1 | 0.00 | 0.00 | 0.00 | 21 | 1019.0 |
| 20260509052547 | 20 | 247 | 9.7 | 16.1 | 0.00 | 0.00 | 0.00 | 21 | 1019.0 |
| 20260509051007 | 20 | 248 | 6.4 | 17.7 | 0.00 | 0.00 | 0.00 | 21 | 1019.0 |
| 20260509050546 | 20 | 251 | 14.5 | 20.9 | 0.00 | 0.00 | 0.00 | 21 | 1018.7 |
| 20260509050047 | 20 | 237 | 4.8 | 14.5 | 0.00 | 0.00 | 0.00 | 21 | 1019.0 |
| 20260509045546 | 20 | 258 | 11.3 | 17.7 | 0.00 | 0.00 | 0.00 | 21 | 1019.0 |
| 20260509045046 | 20 | 225 | 8.0 | 19.3 | 0.00 | 0.00 | 0.00 | 21 | 1018.8 |
| 20260509044547 | 20 | 238 | 9.7 | 17.7 | 0.00 | 0.00 | 0.00 | 21 | 1018.8 |
| 20260509044008 | 20 | 248 | 6.4 | 22.5 | 0.00 | 0.00 | 0.00 | 21 | 1018.8 |
| 20260509043547 | 20 | 221 | 11.3 | 17.7 | 0.00 | 0.00 | 0.00 | 21 | 1018.8 |
| 20260509043047 | 20 | 209 | 6.4 | 14.5 | 0.00 | 0.00 | 0.00 | 21 | 1018.8 |
| 20260509042547 | 20 | 233 | 8.0 | 14.5 | 0.00 | 0.00 | 0.00 | 21 | 1018.7 |
| 20260509042008 | 20 | 217 | 9.7 | 16.1 | 0.00 | 0.00 | 0.00 | 21 | 1018.7 |
| 20260509041547 | 20 | 218 | 14.5 | 17.7 | 0.00 | 0.00 | 0.00 | 21 | 1018.8 |
| 20260509041008 | 20 | 249 | 16.1 | 20.9 | 0.00 | 0.00 | 0.00 | 21 | 1018.6 |
| 20260509040546 | 20 | 222 | 11.3 | 14.5 | 0.00 | 0.00 | 0.00 | 21 | 1018.6 |
| 20260509040047 | 20 | 246 | 11.3 | 16.1 | 0.00 | 0.00 | 0.00 | 21 | 1018.5 |
| 20260509035546 | 20 | 245 | 12.9 | 16.1 | 0.00 | 0.00 | 0.00 | 21 | 1018.4 |
| 20260509035008 | 20 | 215 | 14.5 | 20.9 | 0.00 | 0.00 | 0.00 | 21 | 1018.4 |
| 20260509034547 | 20 | 212 | 14.5 | 16.1 | 0.00 | 0.00 | 0.00 | 21 | 1018.4 |
| 20260509034047 | 20 | 261 | 11.3 | 24.1 | 0.00 | 0.00 | 0.00 | 21 | 1018.3 |
| 20260509033547 | 20 | 232 | 4.8 | 19.3 | 0.00 | 0.00 | 0.00 | 22 | 1018.4 |
| 20260509033008 | 20 | 225 | 8.0 | 20.9 | 0.00 | 0.00 | 0.00 | 22 | 1018.3 |
| 20260509032546 | 21 | 245 | 8.0 | 17.7 | 0.00 | 0.00 | 0.00 | 22 | 1018.2 |
| 20260509032047 | 21 | 232 | 16.1 | 17.7 | 0.00 | 0.00 | 0.00 | 22 | 1018.3 |
| 20260509030008 | 21 | 261 | 8.0 | 19.3 | 0.00 | 0.00 | 0.00 | 21 | 1018.2 |
| 20260509025546 | 21 | 231 | 17.7 | 20.9 | 0.00 | 0.00 | 0.00 | 21 | 1018.0 |
| 20260509025047 | 21 | 213 | 8.0 | 16.1 | 0.00 | 0.00 | 0.00 | 21 | 1018.0 |
| 20260509024508 | 21 | 228 | 14.5 | 20.9 | 0.00 | 0.00 | 0.00 | 21 | 1018.0 |
| 20260509024008 | 21 | 232 | 8.0 | 20.9 | 0.00 | 0.00 | 0.00 | 21 | 1017.7 |
| 20260509023546 | 21 | 222 | 8.0 | 20.9 | 0.00 | 0.00 | 0.00 | 21 | 1017.8 |
| 20260509023008 | 22 | 220 | 8.0 | 19.3 | 0.00 | 0.00 | 0.00 | 21 | 1017.8 |
| 20260509022546 | 22 | 242 | 16.1 | 20.9 | 0.00 | 0.00 | 0.00 | 21 | 1017.6 |
| 20260509022046 | 22 | 207 | 11.3 | 17.7 | 0.00 | 0.00 | 0.00 | 21 | 1017.7 |
| 20260509021547 | 22 | 233 | 9.7 | 16.1 | 0.00 | 0.00 | 0.00 | 21 | 1017.5 |
| 20260509021009 | 22 | 240 | 6.4 | 14.5 | 0.00 | 0.00 | 0.00 | 21 | 1017.7 |
| 20260509020547 | 22 | 217 | 8.0 | 20.9 | 0.00 | 0.00 | 0.00 | 20 | 1017.6 |
| 20260509020046 | 23 | 223 | 19.3 | 24.1 | 0.00 | 0.00 | 0.00 | 20 | 1017.5 |
| 20260509015509 | 23 | 228 | 12.9 | 22.5 | 0.00 | 0.00 | 0.00 | 19 | 1017.4 |
| 20260509015009 | 23 | 228 | 12.9 | 22.5 | 0.00 | 0.00 | 0.00 | 19 | 1017.5 |
| 20260509014546 | 23 | 228 | 12.9 | 22.5 | 0.00 | 0.00 | 0.00 | 19 | 1017.4 |
| 20260509014047 | 23 | 246 | 19.3 | 33.8 | 0.00 | 0.00 | 0.00 | 19 | 1017.4 |
| 20260509013547 | 24 | 225 | 14.5 | 33.8 | 0.00 | 0.00 | 0.00 | 19 | 1017.3 |
| 20260509013047 | 24 | 216 | 11.3 | 19.3 | 0.00 | 0.00 | 0.00 | 19 | 1017.5 |
| 20260509012547 | 24 | 241 | 11.3 | 25.7 | 0.00 | 0.00 | 0.00 | 19 | 1017.4 |
| 20260509012008 | 24 | 226 | 14.5 | 22.5 | 0.00 | 0.00 | 0.00 | 19 | 1017.3 |
| 20260509011547 | 25 | 199 | 17.7 | 29.0 | 0.00 | 0.00 | 0.00 | 19 | 1017.4 |
| 20260509011047 | 25 | 227 | 17.7 | 35.4 | 0.00 | 0.00 | 0.00 | 19 | 1017.5 |
| 20260509010508 | 25 | 266 | 24.1 | 25.7 | 0.00 | 0.00 | 0.00 | 19 | 1017.6 |
| 20260509010008 | 25 | 220 | 29.0 | 41.8 | 0.00 | 0.00 | 0.00 | 19 | 1017.4 |
| 20260509005547 | 25 | 207 | 17.7 | 30.6 | 0.00 | 0.00 | 0.00 | 19 | 1017.5 |
| 20260509005008 | 25 | 232 | 16.1 | 24.1 | 0.00 | 0.00 | 0.00 | 19 | 1017.6 |
| 20260509004547 | 25 | 265 | 25.7 | 30.6 | 0.00 | 0.00 | 0.00 | 19 | 1017.5 |
| 20260509004047 | 25 | 222 | 27.4 | 33.8 | 0.00 | 0.00 | 0.00 | 19 | 1017.3 |
| 20260509003546 | 26 | 212 | 14.5 | 19.3 | 0.00 | 0.00 | 0.00 | 18 | 1017.4 |
| 20260509003008 | 26 | 195 | 14.5 | 30.6 | 0.00 | 0.00 | 0.00 | 18 | 1017.6 |
| 20260509002547 | 25 | 253 | 20.9 | 27.4 | 0.00 | 0.00 | 0.00 | 18 | 1017.3 |
| 20260509002047 | 25 | 191 | 11.3 | 29.0 | 0.00 | 0.00 | 0.00 | 18 | 1017.3 |
| 20260509001509 | 26 | 217 | 20.9 | 29.0 | 0.00 | 0.00 | 0.00 | 18 | 1017.5 |
| 20260508235546 | 26 | 216 | 19.3 | 32.2 | 0.00 | 0.00 | 0.00 | 18 | 1017.3 |
| 20260508235046 | 26 | 192 | 17.7 | 32.2 | 0.00 | 0.00 | 0.00 | 18 | 1017.6 |
| 20260508234547 | 26 | 247 | 11.3 | 32.2 | 0.00 | 0.00 | 0.00 | 18 | 1017.6 |
| 20260508232508 | 25 | 219 | 11.3 | 38.6 | 0.00 | 0.00 | 0.00 | 18 | 1017.8 |
| 20260508232008 | 26 | 297 | 8.0 | 27.4 | 0.00 | 0.00 | 0.00 | 18 | 1017.6 |
| 20260508231547 | 26 | 209 | 14.5 | 22.5 | 0.00 | 0.00 | 0.00 | 18 | 1017.7 |
| 20260508225547 | 26 | 204 | 16.1 | 25.7 | 0.00 | 0.00 | 0.00 | 18 | 1017.8 |
| 20260508225009 | 26 | 252 | 9.7 | 30.6 | 0.00 | 0.00 | 0.00 | 17 | 1017.7 |
| 20260508224547 | 26 | 246 | 12.9 | 37.0 | 0.00 | 0.00 | 0.00 | 18 | 1017.7 |
| 20260508224047 | 26 | 248 | 20.9 | 38.6 | 0.00 | 0.00 | 0.00 | 18 | 1017.7 |
| 20260508223547 | 26 | 212 | 16.1 | 22.5 | 0.00 | 0.00 | 0.00 | 17 | 1017.7 |
| 20260508223008 | 25 | 254 | 14.5 | 32.2 | 0.00 | 0.00 | 0.00 | 18 | 1017.9 |
| 20260508222547 | 26 | 252 | 24.1 | 33.8 | 0.00 | 0.00 | 0.00 | 17 | 1017.8 |
| 20260508222047 | 26 | 236 | 17.7 | 20.9 | 0.00 | 0.00 | 0.00 | 17 | 1017.9 |
| 20260508221546 | 25 | 267 | 17.7 | 32.2 | 0.00 | 0.00 | 0.00 | 18 | 1018.0 |
| 20260508221046 | 26 | 275 | 12.9 | 17.7 | 0.00 | 0.00 | 0.00 | 18 | 1017.9 |
| 20260508220547 | 26 | 294 | 14.5 | 25.7 | 0.00 | 0.00 | 0.00 | 17 | 1018.0 |
| 20260508220008 | 27 | 234 | 14.5 | 24.1 | 0.00 | 0.00 | 0.00 | 17 | 1018.0 |
| 20260508215546 | 25 | 248 | 11.3 | 24.1 | 0.00 | 0.00 | 0.00 | 18 | 1018.1 |
| 20260508215047 | 26 | 274 | 16.1 | 40.2 | 0.00 | 0.00 | 0.00 | 17 | 1018.2 |
| 20260508211547 | 26 | 262 | 20.9 | 35.4 | 0.00 | 0.00 | 0.00 | 16 | 1018.2 |
| 20260508211008 | 26 | 253 | 27.4 | 33.8 | 0.00 | 0.00 | 0.00 | 16 | 1018.3 |
| 20260508210547 | 26 | 288 | 19.3 | 37.0 | 0.00 | 0.00 | 0.00 | 16 | 1018.5 |
| 20260508210046 | 26 | 249 | 20.9 | 25.7 | 0.00 | 0.00 | 0.00 | 17 | 1018.4 |
| 20260508205508 | 25 | 203 | 12.9 | 27.4 | 0.00 | 0.00 | 0.00 | 17 | 1018.6 |
| 20260508205047 | 26 | 276 | 19.3 | 32.2 | 0.00 | 0.00 | 0.00 | 17 | 1018.5 |
| 20260508204547 | 25 | 280 | 11.3 | 37.0 | 0.00 | 0.00 | 0.00 | 17 | 1018.4 |
| 20260508204047 | 26 | 232 | 11.3 | 17.7 | 0.00 | 0.00 | 0.00 | 17 | 1018.5 |
| 20260508203547 | 25 | 269 | 12.9 | 33.8 | 0.00 | 0.00 | 0.00 | 17 | 1018.5 |
| 20260508203047 | 26 | 265 | 19.3 | 35.4 | 0.00 | 0.00 | 0.00 | 17 | 1018.7 |
| 20260508202547 | 26 | 224 | 8.0 | 25.7 | 0.00 | 0.00 | 0.00 | 18 | 1018.5 |
| 20260508202009 | 26 | 253 | 17.7 | 22.5 | 0.00 | 0.00 | 0.00 | 17 | 1018.7 |
| 20260508201547 | 27 | 241 | 14.5 | 22.5 | 0.00 | 0.00 | 0.00 | 17 | 1018.6 |
| 20260508201047 | 26 | 249 | 8.0 | 16.1 | 0.00 | 0.00 | 0.00 | 17 | 1018.7 |
| 20260508200509 | 26 | 295 | 20.9 | 32.2 | 0.00 | 0.00 | 0.00 | 17 | 1018.7 |
| 20260508200009 | 26 | 175 | 6.4 | 22.5 | 0.00 | 0.00 | 0.00 | 16 | 1018.7 |
| 20260508195547 | 26 | 265 | 11.3 | 17.7 | 0.00 | 0.00 | 0.00 | 16 | 1018.8 |
| 20260508195009 | 25 | 271 | 12.9 | 27.4 | 0.00 | 0.00 | 0.00 | 17 | 1018.7 |
| 20260508194546 | 25 | 207 | 22.5 | 33.8 | 0.00 | 0.00 | 0.00 | 17 | 1018.9 |
| 20260508194047 | 26 | 190 | 16.1 | 24.1 | 0.00 | 0.00 | 0.00 | 17 | 1018.9 |
| 20260508193546 | 26 | 218 | 16.1 | 20.9 | 0.00 | 0.00 | 0.00 | 16 | 1018.9 |
| 20260508193009 | 26 | 345 | 3.2 | 11.3 | 0.00 | 0.00 | 0.00 | 15 | 1018.8 |
| 20260508192546 | 25 | 256 | 22.5 | 33.8 | 0.00 | 0.00 | 0.00 | 16 | 1019.0 |
| 20260508192046 | 26 | 211 | 22.5 | 27.4 | 0.00 | 0.00 | 0.00 | 16 | 1018.9 |
| 20260508191509 | 25 | 186 | 9.7 | 22.5 | 0.00 | 0.00 | 0.00 | 17 | 1018.9 |
| 20260508191009 | 25 | 239 | 16.1 | 29.0 | 0.00 | 0.00 | 0.00 | 17 | 1019.2 |
| 20260508190547 | 25 | 239 | 24.1 | 27.4 | 0.00 | 0.00 | 0.00 | 17 | 1019.3 |
| 20260508190009 | 26 | 199 | 8.0 | 12.9 | 0.00 | 0.00 | 0.00 | 16 | 1019.0 |
| 20260508185547 | 26 | 201 | 19.3 | 22.5 | 0.00 | 0.00 | 0.00 | 17 | 1019.3 |
| 20260508185047 | 25 | 300 | 22.5 | 29.0 | 0.00 | 0.00 | 0.00 | 17 | 1019.4 |
| 20260508184547 | 25 | 267 | 19.3 | 24.1 | 0.00 | 0.00 | 0.00 | 16 | 1019.4 |
| 20260508184009 | 25 | 284 | 8.0 | 19.3 | 0.00 | 0.00 | 0.00 | 17 | 1019.2 |
| 20260508183546 | 25 | 148 | 4.8 | 8.0 | 0.00 | 0.00 | 0.00 | 16 | 1019.3 |
| 20260508183046 | 24 | 189 | 16.1 | 29.0 | 0.00 | 0.00 | 0.00 | 17 | 1019.5 |
| 20260508182509 | 25 | 253 | 22.5 | 32.2 | 0.00 | 0.00 | 0.00 | 16 | 1019.3 |
| 20260508182008 | 26 | 298 | 4.8 | 11.3 | 0.00 | 0.00 | 0.00 | 16 | 1019.5 |
| 20260508181547 | 25 | 251 | 6.4 | 24.1 | 0.00 | 0.00 | 0.00 | 16 | 1019.6 |
| 20260508181008 | 24 | 317 | 17.7 | 19.3 | 0.00 | 0.00 | 0.00 | 17 | 1019.8 |
| 20260508180546 | 25 | 296 | 16.1 | 20.9 | 0.00 | 0.00 | 0.00 | 17 | 1019.5 |
| 20260508180047 | 25 | 258 | 11.3 | 22.5 | 0.00 | 0.00 | 0.00 | 17 | 1019.4 |
| 20260508175547 | 25 | 137 | 3.2 | 9.7 | 0.00 | 0.00 | 0.00 | 16 | 1019.6 |
| 20260508175008 | 25 | 121 | 3.2 | 9.7 | 0.00 | 0.00 | 0.00 | 16 | 1019.8 |
| 20260508174547 | 24 | 311 | 9.7 | 17.7 | 0.00 | 0.00 | 0.00 | 16 | 1019.7 |
| 20260508174047 | 25 | 268 | 11.3 | 20.9 | 0.00 | 0.00 | 0.00 | 16 | 1019.7 |
| 20260508173547 | 24 | 236 | 14.5 | 16.1 | 0.00 | 0.00 | 0.00 | 17 | 1019.7 |
| 20260508173008 | 23 | 211 | 14.5 | 22.5 | 0.00 | 0.00 | 0.00 | 17 | 1019.8 |
| 20260508172547 | 24 | 269 | 14.5 | 24.1 | 0.00 | 0.00 | 0.00 | 17 | 1019.8 |
| 20260508172047 | 24 | 283 | 19.3 | 19.3 | 0.00 | 0.00 | 0.00 | 17 | 1019.8 |
| 20260508163009 | 24 | 305 | 4.8 | 14.5 | 0.00 | 0.00 | 0.00 | 17 | 1019.7 |
| 20260508162546 | 23 | 296 | 11.3 | 12.9 | 0.00 | 0.00 | 0.00 | 18 | 1019.9 |
| 20260508162047 | 23 | 275 | 8.0 | 17.7 | 0.00 | 0.00 | 0.00 | 18 | 1019.7 |
| 20260508161547 | 23 | 264 | 9.7 | 17.7 | 0.00 | 0.00 | 0.00 | 18 | 1019.8 |
| 20260508161009 | 22 | 234 | 3.2 | 16.1 | 0.00 | 0.00 | 0.00 | 18 | 1019.7 |
| 20260508160547 | 23 | 259 | 9.7 | 20.9 | 0.00 | 0.00 | 0.00 | 18 | 1019.9 |
| 20260508160047 | 22 | 240 | 12.9 | 17.7 | 0.00 | 0.00 | 0.00 | 18 | 1019.8 |
| 20260508155509 | 23 | 315 | 11.3 | 16.1 | 0.00 | 0.00 | 0.00 | 17 | 1019.7 |
| 20260508155047 | 23 | 324 | 6.4 | 14.5 | 0.00 | 0.00 | 0.00 | 18 | 1019.8 |
| 20260508154547 | 23 | 294 | 8.0 | 16.1 | 0.00 | 0.00 | 0.00 | 18 | 1019.7 |
| 20260508154048 | 22 | 290 | 11.3 | 14.5 | 0.00 | 0.00 | 0.00 | 18 | 1019.6 |
| 20260508153547 | 22 | 292 | 4.8 | 14.5 | 0.00 | 0.00 | 0.00 | 17 | 1019.7 |
| 20260508153047 | 22 | 282 | 11.3 | 19.3 | 0.00 | 0.00 | 0.00 | 18 | 1019.7 |
| 20260508152547 | 21 | 255 | 9.7 | 20.9 | 0.00 | 0.00 | 0.00 | 18 | 1019.7 |
| 20260508152008 | 21 | 285 | 8.0 | 16.1 | 0.00 | 0.00 | 0.00 | 18 | 1019.8 |
| 20260508151527 | 21 | 273 | 11.3 | 17.7 | 0.00 | 0.00 | 0.00 | 18 | 1019.7 |
| 20260508151047 | 21 | 254 | 16.1 | 17.7 | 0.00 | 0.00 | 0.00 | 17 | 1019.8 |
| 20260508150508 | 21 | 259 | 12.9 | 20.9 | 0.00 | 0.00 | 0.00 | 17 | 1019.8 |
| 20260508150008 | 21 | 267 | 8.0 | 20.9 | 0.00 | 0.00 | 0.00 | 17 | 1019.6 |
| 20260508145547 | 21 | 243 | 16.1 | 16.1 | 0.00 | 0.00 | 0.00 | 17 | 1019.6 |
| 20260508145008 | 21 | 247 | 16.1 | 17.7 | 0.00 | 0.00 | 0.00 | 17 | 1019.7 |
| 20260508144546 | 21 | 296 | 4.8 | 14.5 | 0.00 | 0.00 | 0.00 | 17 | 1019.7 |
| 20260508144047 | 20 | 212 | 4.8 | 16.1 | 0.00 | 0.00 | 0.00 | 18 | 1019.5 |
| 20260508142047 | 20 | 169 | 3.2 | 4.8 | 0.00 | 0.00 | 0.00 | 19 | 1019.6 |
| 20260508141509 | 20 | 283 | 0.0 | 3.2 | 0.00 | 0.00 | 0.00 | 23 | 1019.6 |
| 20260508141009 | 18 | 279 | 3.2 | 4.8 | 0.00 | 0.00 | 0.00 | 22 | 1019.7 |
| 20260508140546 | 18 | 252 | 4.8 | 4.8 | 0.00 | 0.00 | 0.00 | 23 | 1019.6 |
| 20260508140047 | 17 | 243 | 3.2 | 4.8 | 0.00 | 0.00 | 0.00 | 25 | 1019.4 |
| 20260508135546 | 17 | 277 | 3.2 | 4.8 | 0.00 | 0.00 | 0.00 | 25 | 1019.6 |
| 20260508135046 | 16 | 262 | 4.8 | 6.4 | 0.00 | 0.00 | 0.00 | 26 | 1019.4 |